EW4729 Weather Reports


Display with metric or nautical units.
time (UTC)temp
F
wind
direction
speed
MPH
gust
MPH
rain 1hr
in
rain 24hr
in
rain mn
in
humidity
%
barometer
mb
20260901024052 86 180 2.0 9.0 0.00 0.00 0.00 73 1014.8
20260901023552 86 182 3.0 9.0 0.00 0.00 0.00 73 1014.7
20260901023104 86 179 3.0 10.0 0.00 0.00 0.00 72 1014.6
20260901022552 86 165 4.0 10.0 0.00 0.00 0.00 72 1014.7
20260901022052 86 162 3.0 8.0 0.00 0.00 0.00 72 1014.6
20260901021605 86 169 2.0 8.0 0.00 0.00 0.00 71 1014.5
20260901021056 87 179 3.0 8.0 0.00 0.00 0.00 71 1014.5
20260901020552 87 202 3.0 8.0 0.00 0.00 0.00 71 1014.4
20260901020110 87 0 3.0 8.0 0.00 0.00 0.00 71 1014.3
20260901015551 87 153 4.0 8.0 0.00 0.00 0.00 70 1014.2
20260901015052 87 147 2.0 9.0 0.00 0.00 0.00 70 1014.2
20260901014608 88 154 2.0 9.0 0.00 0.00 0.00 69 1014.2
20260901014058 88 169 2.0 9.0 0.00 0.00 0.00 69 1014.1
20260901013551 88 135 3.0 9.0 0.00 0.00 0.00 68 1014.1
20260901013110 88 149 4.0 10.0 0.00 0.00 0.00 68 1014.1
20260901012554 88 139 2.0 10.0 0.00 0.00 0.00 67 1014.1
20260901012054 89 192 4.0 8.0 0.00 0.00 0.00 66 1014.1
20260901011621 89 148 2.0 11.0 0.00 0.00 0.00 66 1014.1
20260901011054 89 164 4.0 11.0 0.00 0.00 0.00 65 1014.1
20260901010554 89 135 4.0 11.0 0.00 0.00 0.00 64 1013.9
20260901010140 90 157 3.0 10.0 0.00 0.00 0.00 64 1013.9
20260901005558 90 156 3.0 14.0 0.00 0.00 0.00 64 1013.9
20260901005052 90 158 4.0 16.0 0.00 0.00 0.00 63 1013.8
20260901004611 91 156 4.0 16.0 0.00 0.00 0.00 63 1013.9
20260901004051 91 157 5.0 11.0 0.00 0.00 0.00 62 1013.9
20260901003551 92 178 5.0 11.0 0.00 0.00 0.00 61 1013.9
20260901003111 92 128 3.0 10.0 0.00 0.00 0.00 60 1013.8
20260901002555 92 118 4.0 12.0 0.00 0.00 0.00 59 1013.8
20260901002051 93 106 4.0 12.0 0.00 0.00 0.00 58 1013.7
20260901001609 93 88 5.0 13.0 0.00 0.00 0.00 58 1013.6
20260901001055 94 143 4.0 13.0 0.00 0.00 0.00 56 1013.6
20260901000556 94 116 5.0 13.0 0.00 0.00 0.00 54 1013.6
20260901000108 95 58 5.0 14.0 0.00 0.00 0.00 53 1013.5
20260831235555 95 163 6.0 14.0 0.00 0.00 0.00 53 1013.5
20260831235058 96 165 6.0 14.0 0.00 0.00 0.00 51 1013.5
20260831234602 97 91 5.0 19.0 0.00 0.00 0.00 51 1013.5
20260831234056 97 98 6.0 19.0 0.00 0.00 0.00 49 1013.5
20260831233554 98 132 5.0 19.0 0.00 0.00 0.00 46 1013.4
20260831233109 98 150 3.0 12.0 0.00 0.00 0.00 45 1013.4
20260831232555 98 119 5.0 12.0 0.00 0.00 0.00 45 1013.3
20260831232055 98 100 5.0 12.0 0.00 0.00 0.00 45 1013.3
20260831231615 98 102 5.0 12.0 0.00 0.00 0.00 44 1013.3
20260831231058 99 73 5.0 15.0 0.00 0.00 0.00 44 1013.4
20260831230555 99 163 5.0 15.0 0.00 0.00 0.00 44 1013.4
20260831230124 99 147 7.0 15.0 0.00 0.00 0.00 42 1013.3
20260831225554 100 83 6.0 13.0 0.00 0.00 0.00 39 1013.3
20260831225051 100 94 5.0 11.0 0.00 0.00 0.00 37 1013.2
20260831224605 100 113 4.0 10.0 0.00 0.00 0.00 37 1013.3
20260831224055 100 96 4.0 10.0 0.00 0.00 0.00 37 1013.2
20260831223556 100 67 4.0 11.0 0.00 0.00 0.00 37 1013.3
20260831223125 100 52 5.0 12.0 0.00 0.00 0.00 37 1013.3
20260831222555 100 84 4.0 12.0 0.00 0.00 0.00 36 1013.2
20260831222056 101 70 3.0 12.0 0.00 0.00 0.00 38 1013.3
20260831221624 100 122 3.0 12.0 0.00 0.00 0.00 38 1013.4
20260831221057 101 97 4.0 9.0 0.00 0.00 0.00 36 1013.4
20260831220556 101 107 2.0 9.0 0.00 0.00 0.00 37 1013.4
20260831220131 101 100 3.0 9.0 0.00 0.00 0.00 36 1013.5
20260831215555 101 108 1.0 10.0 0.00 0.00 0.00 35 1013.5
20260831215052 101 184 3.0 10.0 0.00 0.00 0.00 34 1013.7
20260831214557 101 142 3.0 7.0 0.00 0.00 0.00 35 1013.8
20260831214054 101 170 2.0 7.0 0.00 0.00 0.00 35 1013.7
20260831213554 100 163 2.0 7.0 0.00 0.00 0.00 36 1013.8
20260831213101 101 0 2.0 12.0 0.00 0.00 0.00 37 1013.7
20260831212555 101 167 4.0 12.0 0.00 0.00 0.00 37 1013.8
20260831212056 101 183 1.0 8.0 0.00 0.00 0.00 38 1013.7
20260831211616 100 172 3.0 11.0 0.00 0.00 0.00 40 1013.9
20260831211052 100 0 4.0 11.0 0.00 0.00 0.00 39 1014.0
20260831210552 100 198 5.0 8.0 0.00 0.00 0.00 41 1014.1
20260831210110 100 152 1.0 9.0 0.00 0.00 0.00 39 1014.2
20260831205554 99 0 1.0 9.0 0.00 0.00 0.00 42 1014.3
20260831205055 99 211 5.0 9.0 0.00 0.00 0.00 43 1014.4
20260831204606 98 133 2.0 12.0 0.00 0.00 0.00 44 1014.5
20260831204053 98 123 2.0 12.0 0.00 0.00 0.00 46 1014.6
20260831203552 98 145 5.0 10.0 0.00 0.00 0.00 44 1014.7
20260831203109 98 157 5.0 13.0 0.00 0.00 0.00 43 1014.7
20260831202554 98 191 5.0 13.0 0.00 0.00 0.00 43 1014.7
20260831202056 98 136 7.0 11.0 0.00 0.00 0.00 44 1014.9
20260831201610 98 144 2.0 11.0 0.00 0.00 0.00 44 1015.0
20260831201055 98 134 4.0 11.0 0.00 0.00 0.00 44 1015.0
20260831200554 98 75 2.0 11.0 0.00 0.00 0.00 44 1015.1
20260831200107 98 77 4.0 12.0 0.00 0.00 0.00 44 1015.1
20260831195558 98 129 5.0 12.0 0.00 0.00 0.00 45 1015.2
20260831195051 98 111 2.0 9.0 0.00 0.00 0.00 45 1015.2
20260831194642 97 184 4.0 9.0 0.00 0.00 0.00 45 1015.3
20260831194055 97 93 4.0 9.0 0.00 0.00 0.00 47 1015.3
20260831193555 96 175 1.0 10.0 0.00 0.00 0.00 49 1015.3
20260831193100 95 81 2.0 10.0 0.00 0.00 0.00 51 1015.4
20260831192553 95 58 4.0 10.0 0.00 0.00 0.00 50 1015.5
20260831192054 95 87 1.0 8.0 0.00 0.00 0.00 51 1015.5
20260831191608 95 76 2.0 8.0 0.00 0.00 0.00 51 1015.6
20260831191053 95 98 3.0 7.0 0.00 0.00 0.00 52 1015.8
20260831190553 95 78 4.0 7.0 0.00 0.00 0.00 51 1015.8
20260831190108 95 89 2.0 10.0 0.00 0.00 0.00 51 1016.0
20260831185553 95 0 2.0 10.0 0.00 0.00 0.00 51 1016.0
20260831185052 95 143 2.0 10.0 0.00 0.00 0.00 51 1016.0
20260831184601 96 40 5.0 10.0 0.00 0.00 0.00 51 1016.1
20260831184054 95 0 4.0 10.0 0.00 0.00 0.00 54 1016.2
20260831183554 95 0 2.0 7.0 0.00 0.00 0.00 54 1016.2
20260831183057 95 0 0.0 7.0 0.00 0.00 0.00 54 1016.4
20260831182554 95 110 2.0 11.0 0.00 0.00 0.00 54 1016.4
20260831182054 95 140 4.0 11.0 0.00 0.00 0.00 55 1016.4
20260831181559 94 352 6.0 11.0 0.00 0.00 0.00 55 1016.5
20260831181055 94 97 0.0 4.0 0.00 0.00 0.00 56 1016.6
20260831180557 94 97 1.0 4.0 0.00 0.00 0.00 55 1016.6
20260831180107 94 97 1.0 8.0 0.00 0.00 0.00 55 1016.7
20260831175555 95 112 2.0 8.0 0.00 0.00 0.00 55 1016.8
20260831175054 95 92 4.0 8.0 0.00 0.00 0.00 54 1016.8
20260831174608 96 84 3.0 6.0 0.00 0.00 0.00 53 1016.8
20260831174057 96 0 2.0 9.0 0.00 0.00 0.00 53 1016.9
20260831173558 96 0 2.0 10.0 0.00 0.00 0.00 53 1016.9
20260831173101 96 207 3.0 10.0 0.00 0.00 0.00 53 1016.8
20260831172554 96 168 4.0 10.0 0.00 0.00 0.00 53 1016.9
20260831172053 96 198 2.0 7.0 0.00 0.00 0.00 53 1017.1
20260831171600 96 196 2.0 7.0 0.00 0.00 0.00 52 1017.1
20260831171054 96 0 0.0 9.0 0.00 0.00 0.00 52 1017.1
20260831170553 95 163 3.0 10.0 0.00 0.00 0.00 52 1017.3
20260831170105 96 179 2.0 10.0 0.00 0.00 0.00 53 1017.2
20260831165552 96 194 3.0 9.0 0.00 0.00 0.00 53 1017.3
20260831165052 95 127 4.0 7.0 0.00 0.00 0.00 54 1017.4
20260831164601 95 69 3.0 7.0 0.00 0.00 0.00 57 1017.5
20260831164053 95 0 3.0 7.0 0.00 0.00 0.00 60 1017.4
20260831163553 95 225 3.0 7.0 0.00 0.00 0.00 60 1017.4
20260831163110 94 0 2.0 8.0 0.00 0.00 0.00 62 1017.5
20260831162553 94 269 2.0 8.0 0.00 0.00 0.00 63 1017.5
20260831162058 93 261 2.0 7.0 0.00 0.00 0.00 64 1017.5
20260831161604 93 222 4.0 7.0 0.00 0.00 0.00 65 1017.5
20260831161052 93 269 1.0 9.0 0.00 0.00 0.00 67 1017.5
20260831160556 92 0 2.0 9.0 0.00 0.00 0.00 69 1017.4
20260831160059 91 246 4.0 9.0 0.00 0.00 0.00 69 1017.5
20260831155554 90 0 3.0 7.0 0.00 0.00 0.00 71 1017.4
20260831155054 90 173 3.0 7.0 0.00 0.00 0.00 70 1017.5
20260831154631 89 0 1.0 5.0 0.00 0.00 0.00 71 1017.4
20260831154054 89 0 0.0 6.0 0.00 0.00 0.00 71 1017.5
20260831153553 89 190 2.0 6.0 0.00 0.00 0.00 71 1017.5
20260831153119 89 153 3.0 6.0 0.00 0.00 0.00 73 1017.4
20260831152553 88 0 1.0 8.0 0.00 0.00 0.00 74 1017.5
20260831152053 88 194 2.0 9.0 0.00 0.00 0.00 76 1017.4
20260831151605 88 194 5.0 9.0 0.00 0.00 0.00 77 1017.4
20260831151053 87 186 1.0 6.0 0.00 0.00 0.00 77 1017.3
20260831150553 87 172 3.0 6.0 0.00 0.00 0.00 78 1017.3
20260831150059 87 210 0.0 4.0 0.00 0.00 0.00 81 1017.3
20260831145556 86 0 0.0 7.0 0.00 0.00 0.00 81 1017.3
20260831145057 86 191 3.0 7.0 0.00 0.00 0.00 82 1017.4
20260831144658 86 215 1.0 7.0 0.00 0.00 0.00 84 1017.3
20260831144053 85 227 3.0 7.0 0.00 0.00 0.00 85 1017.4
20260831143556 84 196 2.0 6.0 0.00 0.00 0.00 86 1017.2
20260831143104 84 0 1.0 6.0 0.00 0.00 0.00 88 1017.1
20260831142557 83 207 4.0 6.0 0.00 0.00 0.00 89 1017.2
20260831142053 83 207 2.0 6.0 0.00 0.00 0.00 91 1017.2
20260831141600 82 0 0.0 0.0 0.00 0.00 0.00 92 1017.2
20260831141054 82 0 0.0 0.0 0.00 0.00 0.00 93 1017.2
20260831140553 81 0 0.0 0.0 0.00 0.00 0.00 93 1017.1
20260831140105 81 0 0.0 0.0 0.00 0.00 0.00 94 1017.1
20260831135553 80 0 0.0 0.0 0.00 0.00 0.00 94 1017.1
20260831135053 80 0 0.0 0.0 0.00 0.00 0.00 94 1017.0
20260831134600 79 0 0.0 0.0 0.00 0.00 0.00 94 1017.0
20260831134052 79 0 0.0 1.0 0.00 0.00 0.00 94 1017.0
20260831133552 78 0 0.0 1.0 0.00 0.00 0.00 94 1016.9
20260831133103 78 0 0.0 2.0 0.00 0.00 0.00 94 1016.9
20260831132555 77 0 0.0 2.0 0.00 0.00 0.00 94 1016.8
20260831132055 77 0 1.0 2.0 0.00 0.00 0.00 94 1016.7
20260831131605 77 0 0.0 2.0 0.00 0.00 0.00 94 1016.7
20260831131053 76 0 0.0 0.0 0.00 0.00 0.00 94 1016.6
20260831130553 76 0 0.0 1.0 0.00 0.00 0.00 93 1016.5
20260831130109 75 0 0.0 1.0 0.00 0.00 0.00 93 1016.5
20260831125553 74 226 0.0 0.0 0.00 0.00 0.00 93 1016.4
20260831125053 74 0 0.0 0.0 0.00 0.00 0.00 93 1016.4
20260831124603 74 0 0.0 0.0 0.00 0.00 0.00 92 1016.3
20260831124053 73 0 0.0 0.0 0.00 0.00 0.00 92 1016.2
20260831123556 73 0 0.0 0.0 0.00 0.00 0.00 92 1016.2
20260831123058 73 0 0.0 0.0 0.00 0.00 0.00 92 1016.3
20260831122553 73 0 0.0 0.0 0.00 0.00 0.00 92 1016.2
20260831122056 73 0 0.0 0.0 0.00 0.00 0.00 92 1016.1
20260831121603 73 0 0.0 0.0 0.00 0.00 0.00 92 1016.0
20260831121053 73 0 0.0 0.0 0.00 0.00 0.00 92 1016.0
20260831120556 73 0 0.0 0.0 0.00 0.00 0.00 92 1016.1
20260831120112 73 0 0.0 1.0 0.00 0.00 0.00 92 1015.9
20260831115552 73 0 0.0 1.0 0.00 0.00 0.00 92 1015.9
20260831115053 73 0 0.0 1.0 0.00 0.00 0.00 92 1016.0
20260831114600 73 0 0.0 0.0 0.00 0.00 0.00 91 1016.1
20260831114053 74 0 0.0 0.0 0.00 0.00 0.00 92 1016.1
20260831113553 74 0 0.0 0.0 0.00 0.00 0.00 92 1016.0
20260831113110 74 0 0.0 0.0 0.00 0.00 0.00 92 1016.1
20260831112553 74 0 0.0 0.0 0.00 0.00 0.00 92 1016.0
20260831112052 74 0 0.0 0.0 0.00 0.00 0.00 92 1016.0
20260831111600 74 0 0.0 0.0 0.00 0.00 0.00 92 1016.0
20260831111052 74 0 0.0 1.0 0.00 0.00 0.00 92 1016.0
20260831110553 74 0 0.0 1.0 0.00 0.00 0.00 91 1016.1
20260831110105 74 0 0.0 0.0 0.00 0.00 0.00 91 1016.0
20260831105553 74 0 0.0 0.0 0.00 0.00 0.00 91 1015.9
20260831105053 74 0 0.0 0.0 0.00 0.00 0.00 91 1015.8
20260831104614 74 0 0.0 0.0 0.00 0.00 0.00 91 1015.8
20260831104052 74 0 0.0 0.0 0.00 0.00 0.00 91 1015.8
20260831103552 75 0 0.0 0.0 0.00 0.00 0.00 91 1015.9
20260831103110 75 0 0.0 0.0 0.00 0.00 0.00 91 1015.9
20260831102553 75 0 0.0 0.0 0.00 0.00 0.00 91 1015.8
20260831102052 75 0 0.0 0.0 0.00 0.00 0.00 91 1015.9
20260831101605 75 0 0.0 0.0 0.00 0.00 0.00 91 1016.0
20260831101053 75 0 0.0 0.0 0.00 0.00 0.00 91 1015.9
20260831100553 75 0 0.0 0.0 0.00 0.00 0.00 91 1016.0
20260831100135 75 0 0.0 0.0 0.00 0.00 0.00 91 1016.0
20260831095554 75 0 0.0 0.0 0.00 0.00 0.00 91 1016.0
20260831095053 75 0 0.0 0.0 0.00 0.00 0.00 91 1015.9
20260831094604 76 0 0.0 0.0 0.00 0.00 0.00 91 1015.8
20260831094053 76 0 0.0 0.0 0.00 0.00 0.00 91 1015.8
20260831093553 76 0 0.0 0.0 0.00 0.00 0.00 91 1015.7
20260831093101 76 0 0.0 0.0 0.00 0.00 0.00 91 1015.8
20260831092556 76 0 0.0 2.0 0.00 0.00 0.00 91 1015.9
20260831092053 76 0 0.0 2.0 0.00 0.00 0.00 91 1015.8
20260831091603 76 186 0.0 3.0 0.00 0.00 0.00 91 1015.8
20260831091053 76 0 1.0 3.0 0.00 0.00 0.00 91 1015.7
20260831090553 76 186 0.0 0.0 0.00 0.00 0.00 90 1015.8
20260831090100 76 0 0.0 0.0 0.00 0.00 0.00 90 1015.8
20260831085553 76 0 0.0 0.0 0.00 0.00 0.00 90 1016.0
20260831085053 76 0 0.0 0.0 0.00 0.00 0.00 90 1015.9
20260831084637 76 0 0.0 0.0 0.00 0.00 0.00 90 1016.0
20260831084052 76 0 0.0 0.0 0.00 0.00 0.00 90 1016.0
20260831083552 76 0 0.0 0.0 0.00 0.00 0.00 90 1016.0
20260831083104 76 0 0.0 0.0 0.00 0.00 0.00 90 1016.0
20260831082553 76 0 0.0 0.0 0.00 0.00 0.00 89 1016.1
20260831082053 76 0 0.0 0.0 0.00 0.00 0.00 89 1016.0
20260831081612 76 0 0.0 0.0 0.00 0.00 0.00 89 1016.0
20260831081053 76 0 0.0 0.0 0.00 0.00 0.00 89 1016.0
20260831080554 76 0 0.0 0.0 0.00 0.00 0.00 89 1015.9
20260831080128 76 0 0.0 0.0 0.00 0.00 0.00 89 1016.1
20260831075552 76 0 0.0 0.0 0.00 0.00 0.00 89 1016.0
20260831075052 76 0 0.0 0.0 0.00 0.00 0.00 89 1016.1
20260831074609 76 0 0.0 0.0 0.00 0.00 0.00 89 1016.2
20260831074052 76 0 0.0 0.0 0.00 0.00 0.00 89 1016.1
20260831073552 76 0 0.0 0.0 0.00 0.00 0.00 89 1016.1
20260831073105 77 0 0.0 0.0 0.00 0.00 0.00 88 1016.3
20260831072553 77 0 0.0 0.0 0.00 0.00 0.00 88 1016.3
20260831072053 77 0 0.0 0.0 0.00 0.00 0.00 88 1016.2
20260831071608 77 0 0.0 0.0 0.00 0.00 0.00 88 1016.2
20260831071052 77 0 0.0 0.0 0.00 0.00 0.00 88 1016.3
20260831070552 77 0 0.0 0.0 0.00 0.00 0.00 88 1016.3
20260831070106 77 0 0.0 0.0 0.00 0.00 0.00 87 1016.3
20260831065553 78 0 0.0 1.0 0.00 0.00 0.00 87 1016.2
20260831065053 78 0 0.0 1.0 0.00 0.00 0.00 87 1016.2
20260831064604 78 0 0.0 0.0 0.00 0.00 0.00 87 1016.3
20260831064053 78 0 0.0 0.0 0.00 0.00 0.00 87 1016.5
20260831063553 78 0 0.0 0.0 0.00 0.00 0.00 87 1016.4
20260831063112 78 0 0.0 0.0 0.00 0.00 0.00 86 1016.4
20260831062556 79 0 0.0 0.0 0.00 0.00 0.00 87 1016.5
20260831062053 79 0 0.0 0.0 0.00 0.00 0.00 87 1016.5
20260831061557 79 0 0.0 1.0 0.00 0.00 0.00 86 1016.5
20260831061053 79 0 0.0 1.0 0.00 0.00 0.00 86 1016.5
20260831060553 79 0 0.0 1.0 0.00 0.00 0.00 86 1016.5
20260831060105 79 0 0.0 0.0 0.00 0.00 0.00 86 1016.5
20260831055552 79 0 0.0 0.0 0.00 0.00 0.00 86 1016.5
20260831055052 80 0 0.0 0.0 0.00 0.00 0.00 85 1016.7
20260831054601 80 0 0.0 0.0 0.00 0.00 0.00 85 1016.5
20260831054053 80 0 0.0 0.0 0.00 0.00 0.00 85 1016.5
20260831053553 80 0 0.0 2.0 0.00 0.00 0.00 85 1016.5
20260831053117 80 0 0.0 3.0 0.00 0.00 0.00 85 1016.4
20260831052552 80 186 0.0 4.0 0.00 0.00 0.00 85 1016.3
20260831052052 80 187 1.0 4.0 0.00 0.00 0.00 85 1016.3
20260831051602 80 187 1.0 4.0 0.00 0.00 0.00 84 1016.2
20260831051053 81 188 2.0 4.0 0.00 0.00 0.00 84 1016.2
20260831050552 81 0 0.0 4.0 0.00 0.00 0.00 84 1016.1
20260831050120 81 188 2.0 4.0 0.00 0.00 0.00 84 1016.0
20260831045553 81 187 2.0 4.0 0.00 0.00 0.00 84 1016.0
20260831045052 81 190 2.0 4.0 0.00 0.00 0.00 83 1016.2
20260831044600 81 188 2.0 5.0 0.00 0.00 0.00 83 1016.2
20260831044053 81 192 2.0 8.0 0.00 0.00 0.00 83 1016.0
20260831043552 82 196 3.0 8.0 0.00 0.00 0.00 83 1015.9
20260831043056 82 197 4.0 7.0 0.00 0.00 0.00 82 1016.0
20260831042552 82 200 4.0 7.0 0.00 0.00 0.00 82 1015.9
20260831042054 82 183 4.0 8.0 0.00 0.00 0.00 82 1016.0
20260831041620 82 196 4.0 8.0 0.00 0.00 0.00 81 1016.0
20260831041053 82 185 4.0 8.0 0.00 0.00 0.00 81 1016.0
20260831040556 83 198 4.0 7.0 0.00 0.00 0.00 81 1015.8
20260831040105 83 184 4.0 7.0 0.00 0.00 0.00 80 1016.0
20260831035552 83 199 4.0 7.0 0.00 0.00 0.00 80 1015.9
20260831035052 83 193 4.0 7.0 0.00 0.00 0.00 80 1015.7
20260831034559 83 197 4.0 7.0 0.00 0.00 0.00 79 1015.8
20260831034052 84 186 3.0 8.0 0.00 0.00 0.00 79 1015.7
20260831033553 84 171 4.0 9.0 0.00 0.00 0.00 79 1015.7
20260831033113 84 183 5.0 9.0 0.00 0.00 0.00 78 1015.6
20260831032555 84 211 4.0 8.0 0.00 0.00 0.00 78 1015.6
20260831032057 84 189 4.0 9.0 0.00 0.00 0.00 78 1015.5
20260831031605 84 169 4.0 9.0 0.00 0.00 0.00 77 1015.6
20260831031051 85 182 4.0 9.0 0.00 0.00 0.00 77 1015.5
20260831030551 85 201 4.0 9.0 0.00 0.00 0.00 76 1015.4
20260831030112 85 184 4.0 8.0 0.00 0.00 0.00 76 1015.3
20260831025551 85 188 3.0 10.0 0.00 0.00 0.00 75 1015.2
20260831025051 85 196 5.0 10.0 0.00 0.00 0.00 75 1015.2
20260831024606 86 192 4.0 7.0 0.00 0.00 0.00 74 1014.9